Total_Precipitation_Accumulation
1.24 1.12 1.06 1.25 1.23 1.26 1.30 1.37 1.40 1.29 1.18 1.06 1.01 0.93 0.96 0.90 0.86 0.84 1.06 1.20 1.45 1.91 2.13 2.10 2.04 1.81 1.68 1.60 1.66 1.70 1.72 1.69 1.89 2.31 2.98 3.28 2.96 2.33 1.98 1.77 1.59 1.37 1.37
1.13 1.13 1.00 1.07 1.16 1.30 1.50 1.57 1.43 1.36 1.30 1.25 1.23 1.14 1.10 1.03 0.96 0.86 1.00 1.07 1.01 1.21 1.61 2.10 2.34 2.13 1.95 1.80 1.72 1.73 1.72 1.67 1.78 2.03 2.18 2.37 2.44 2.13 1.73 1.67 1.56 1.33 1.40
0.98 1.09 1.09 1.07 1.10 1.30 1.55 1.72 1.60 1.49 1.34 1.33 1.32 1.29 1.18 1.15 1.07 0.97 1.06 1.19 1.02 0.96 1.25 1.79 2.25 2.36 2.22 2.11 1.92 1.85 1.72 1.63 1.66 1.79 1.93 1.91 2.01 1.96 1.67 1.53 1.45 1.37 1.36
0.99 1.11 1.16 1.12 1.12 1.31 1.56 1.78 1.83 1.80 1.70 1.61 1.51 1.42 1.35 1.42 1.26 1.14 1.17 1.26 1.35 1.19 1.16 1.38 1.73 2.08 2.28 2.32 2.07 1.82 1.66 1.55 1.52 1.54 1.66 1.55 1.62 1.70 1.54 1.40 1.40 1.45 1.45
1.03 1.15 1.32 1.34 1.33 1.45 1.55 1.60 1.72 1.74 1.78 1.76 1.57 1.53 1.45 1.53 1.55 1.40 1.46 1.49 1.52 1.48 1.33 1.16 1.28 1.44 1.84 2.18 2.20 1.98 1.81 1.65 1.53 1.46 1.54 1.41 1.38 1.46 1.32 1.31 1.37 1.44 1.44
1.25 1.21 1.33 1.35 1.40 1.59 1.66 1.77 1.98 1.92 1.81 1.90 1.72 1.61 1.57 1.54 1.52 1.60 1.68 1.65 1.62 1.52 1.51 1.32 1.36 1.23 1.42 1.69 1.87 1.95 1.88 1.87 1.81 1.65 1.62 1.45 1.28 1.29 1.30 1.24 1.26 1.34 1.39
1.35 1.36 1.37 1.39 1.43 1.52 1.58 1.77 2.13 2.15 1.96 1.85 2.04 2.00 1.91 1.71 1.62 1.64 1.65 1.74 1.76 1.62 1.61 1.62 1.50 1.32 1.19 1.21 1.29 1.60 1.73 1.97 2.08 1.94 1.81 1.59 1.30 1.29 1.35 1.20 1.23 1.27 1.22
1.32 1.24 1.40 1.50 1.47 1.61 1.69 1.86 2.14 2.35 2.12 1.93 2.27 2.70 2.47 2.20 1.85 1.63 1.61 1.53 1.64 1.65 1.55 1.43 1.35 1.29 1.19 1.19 0.98 1.13 1.41 1.87 2.28 2.16 1.88 1.73 1.52 1.40 1.42 1.29 1.26 1.26 1.24
1.57 1.50 1.59 1.71 1.63 1.69 1.78 1.82 1.91 2.35 2.48 2.23 2.20 2.77 2.65 2.45 2.38 1.87 1.50 1.35 1.54 1.65 1.65 1.51 1.40 1.42 1.35 1.30 1.11 0.93 1.08 1.45 2.02 2.15 1.97 1.93 1.81 1.66 1.49 1.38 1.33 1.31 1.39
1.78 1.67 1.68 1.73 1.73 1.80 1.78 1.66 1.80 2.22 2.67 2.70 2.48 2.30 2.17 2.14 2.33 2.22 1.66 1.38 1.46 1.57 1.72 1.59 1.52 1.53 1.51 1.50 1.42 1.13 0.93 1.05 1.55 2.10 2.27 2.27 2.17 1.96 1.74 1.59 1.47 1.45 1.46
1.80 1.65 1.59 1.67 1.73 1.81 1.80 1.86 2.05 2.33 2.61 2.86 2.81 2.56 2.27 2.04 1.69 1.89 1.88 1.67 1.45 1.36 1.42 1.49 1.60 1.59 1.55 1.50 1.57 1.38 1.01 0.86 1.14 1.69 2.18 2.34 2.28 2.20 2.11 2.00 1.92 1.91 1.78
1.65 1.58 1.55 1.54 1.51 1.58 1.67 1.86 2.12 2.25 2.44 2.67 2.73 2.46 2.28 2.14 1.95 1.82 1.68 1.74 1.72 1.44 1.30 1.27 1.36 1.49 1.49 1.47 1.33 1.40 1.18 0.91 0.87 1.04 1.39 1.83 2.03 2.16 2.21 2.24 2.18 2.08 2.06
1.43 1.44 1.44 1.41 1.31 1.30 1.42 1.63 1.87 1.92 2.04 2.27 2.37 2.27 2.13 1.96 1.92 1.97 1.92 1.83 1.70 1.43 1.30 1.13 1.18 1.31 1.30 1.36 1.40 1.41 1.19 1.06 0.87 0.83 0.89 1.06 1.38 1.76 2.08 2.29 2.35 2.30 2.26
1.25 1.17 1.19 1.22 1.20 1.19 1.23 1.36 1.51 1.56 1.65 1.87 1.94 1.98 1.87 1.81 1.85 1.84 1.88 2.01 1.87 1.64 1.31 1.00 1.03 1.15 1.10 1.14 1.35 1.38 1.03 0.99 0.90 0.82 0.77 0.78 0.85 1.11 1.51 1.77 2.00 2.20 2.25
1.02 0.98 1.03 1.13 1.19 1.13 1.10 1.20 1.33 1.35 1.47 1.63 1.76 1.88 1.81 1.74 1.75 1.81 1.88 1.94 1.96 1.82 1.55 1.13 0.98 0.92 0.94 1.03 1.31 1.16 1.01 1.01 0.90 0.83 0.75 0.67 0.63 0.66 0.82 1.02 1.27 1.50 1.64
0.94 0.94 0.95 0.95 0.98 0.99 1.03 1.17 1.32 1.39 1.41 1.48 1.56 1.67 1.78 1.81 1.84 1.83 1.88 1.89 1.85 1.82 1.71 1.31 1.05 0.88 0.93 0.92 1.14 0.95 1.05 1.21 1.00 0.82 0.74 0.68 0.64 0.62 0.62 0.71 0.79 0.85 0.89
0.74 0.75 0.71 0.75 0.88 0.89 0.89 1.04 1.12 1.14 1.27 1.35 1.35 1.39 1.55 1.68 1.79 1.83 1.82 1.81 1.86 1.81 1.69 1.46 1.14 0.96 1.04 1.06 1.12 0.98 0.97 1.02 0.94 0.90 0.81 0.71 0.63 0.61 0.59 0.62 0.62 0.59 0.60
0.50 0.55 0.59 0.58 0.77 0.94 0.96 1.00 1.01 0.99 1.10 1.19 1.22 1.28 1.35 1.36 1.45 1.59 1.70 1.68 1.77 1.81 1.77 1.66 1.37 1.12 1.10 1.17 1.32 1.32 1.22 1.14 1.10 1.19 1.13 0.94 0.78 0.70 0.66 0.64 0.62 0.57 0.54
0.40 0.44 0.55 0.55 0.61 0.77 0.88 0.89 0.88 0.91 0.96 1.02 1.06 1.12 1.15 1.22 1.33 1.35 1.42 1.51 1.59 1.65 1.74 1.67 1.57 1.43 1.27 1.21 1.28 1.27 1.34 1.47 1.42 1.40 1.44 1.26 1.04 0.88 0.79 0.74 0.69 0.64 0.59
0.44 0.41 0.40 0.43 0.50 0.59 0.72 0.74 0.75 0.78 0.81 0.82 0.94 1.02 1.06 1.09 1.19 1.26 1.27 1.39 1.50 1.59 1.61 1.58 1.52 1.45 1.39 1.36 1.36 1.34 1.39 1.53 1.61 1.51 1.47 1.39 1.30 1.17 1.01 0.89 0.78 0.72 0.67
0.28 0.29 0.26 0.28 0.33 0.41 0.48 0.50 0.57 0.65 0.72 0.76 0.86 0.88 0.91 0.86 0.90 0.97 0.97 1.15 1.31 1.49 1.56 1.59 1.49 1.38 1.33 1.35 1.33 1.34 1.41 1.57 1.61 1.66 1.66 1.53 1.39 1.21 1.10 1.00 0.88 0.81 0.77
0.15 0.19 0.20 0.23 0.27 0.28 0.35 0.35 0.38 0.51 0.62 0.68 0.75 0.77 0.84 0.86 0.81 0.76 0.75 0.83 0.96 1.09 1.28 1.40 1.44 1.36 1.29 1.27 1.35 1.46 1.47 1.56 1.65 1.59 1.51 1.59 1.52 1.41 1.24 1.05 1.05 1.02 0.91
0.12 0.14 0.16 0.22 0.23 0.20 0.23 0.21 0.32 0.52 0.58 0.58 0.57 0.70 0.81 0.87 0.89 0.91 0.80 0.78 0.79 0.83 0.93 1.10 1.24 1.24 1.23 1.25 1.31 1.41 1.48 1.52 1.44 1.48 1.44 1.53 1.53 1.42 1.25 1.19 1.23 1.10 1.01
0.11 0.16 0.17 0.23 0.21 0.14 0.15 0.18 0.26 0.42 0.50 0.49 0.50 0.62 0.76 0.87 0.89 0.92 0.87 0.94 0.91 0.80 0.78 0.85 1.03 1.11 1.12 1.25 1.38 1.49 1.60 1.59 1.53 1.52 1.45 1.47 1.41 1.29 1.19 1.17 1.26 1.13 1.02
0.11 0.14 0.18 0.19 0.15 0.12 0.12 0.16 0.25 0.41 0.49 0.49 0.46 0.54 0.70 0.79 0.88 0.89 0.87 0.98 0.98 0.80 0.73 0.83 0.87 0.94 1.02 1.15 1.34 1.48 1.57 1.59 1.56 1.53 1.38 1.25 1.19 1.24 1.24 1.17 1.15 1.14 1.03
0.12 0.13 0.16 0.16 0.14 0.15 0.14 0.14 0.20 0.31 0.40 0.47 0.48 0.53 0.72 0.78 0.80 0.76 0.79 1.00 1.09 0.95 0.72 0.71 0.78 0.90 0.98 1.12 1.34 1.48 1.71 1.72 1.52 1.48 1.37 1.23 1.21 1.30 1.43 1.33 1.15 1.04 0.98